{"data":{"norad_id":66389,"epoch":"2026-09-20T13:42:13.959360Z","epoch_age_seconds":87327,"freshness":"FRESH","line1":"1 66389U 25257K   26263.57099490  .00022783  00000+0  68324-3 0  9992","line2":"2 66389  53.1596  29.4827 0000793 120.2124 239.8958 15.34405805 49604","mean_motion":15.34405805,"eccentricity":7.93e-5,"inclination_deg":53.1596,"raan_deg":29.4827,"arg_perigee_deg":120.2124,"mean_anomaly_deg":239.8958,"bstar":0.00068324,"rev_number":4960,"period_min":93.847403034297,"perigee_km":462.14350931532,"apogee_km":463.22846384099,"semimajor_km":6840.8229865782,"source":"CELESTRAK","updated_at":"2026-09-21T09:00:35.886915Z"}}